Погода в Созоново

Россия / Тюменская область     57°08′36″N   66°18′20″E
темп.,
°C
ветер,
м/с
пор.,
м/с
влажн.,
%
обл.,
%
осадки,
мм/ч
давл.,
гПа
погр.,
м
24 июля, сб
сб2423:00+18с1180100 0.1 100221
02:00+16ссв2691100 0.4 1003156
05:00+15ссв2695100 0.4 1003166
08:00+17с1283100 0.0 1003246
11:00+17ссз1188100 0.2 100451
14:00+17зсз1194100 2.7 1005261
17:00+19ююв0083100 2.9 1005542
20:00+18с0084100 0.0 100526
25 июля, вс
вс2523:00+16в1196100 0.0 100511
02:00+15св0096100 0.0 100511
05:00+15ссз2296100 0.0 100548
08:00+18сз2381100 0.0 1006189
11:00+23ссз355398 0.1 10061248
14:00+24ссз554611 0.1 10071930
17:00+17сз5108497 1.7 1009484
20:00+13сз51487100 0.6 1011544
26 июля, пн
пн2623:00+12ссз248878 1.2 101294
02:00+8зсз39925 0.0 1012218
05:00+9сз4128634 0.0 1013333
08:00+14сз59555 0.0 1014979
11:00+15зсз5953100 0.0 10141682
14:00+18зсз5842100 0.0 10142203
17:00+16зсз4852100 0.0 10141077
20:00+14з2764100 0.0 1013270
27 июля, вт
вт2723:00+13з266498 0.0 1013159
02:00+12з396596 0.0 1013250
05:00+11з397670 0.0 1013280
08:00+15з476267 0.0 1012452
11:00+18з365971 0.0 1011987
14:00+16з4979100 0.8 1010868
17:00+15з4888100 1.7 1009777
20:00+14зсз37959 0.8 1009363
28 июля, ср
ср2823:00+10ссз11975 0.8 101013
02:00+9зсз229757 0.0 101026
05:00+10зсз2596100 0.0 1010128
08:00+11сз269293 0.0 1011281
11:00+16ссз345239 0.0 1012963
14:00+18зсз344099 0.0 10112156
17:00+19зсз253963 0.0 10112082
20:00+16ю2259100 0.0 101122